Flag Weather past 2 weeks in Seattle, Washington, U.S.A.

Now
42 °F

Passing clouds.


Feels Like: 38 °F
Forecast: 27 / 38 °F
Wind: 7 mph from Southwest

Location: Seattle Boeing Field

Current Time: Nov 29, 2014 at 1:19:00 AM

Latest Report: Nov 29, 2014 at 12:53 AM


Visibility: 10 mi

Pressure: 29.54 "Hg

Humidity: 76%

Dew point: 35 °F

Location of SeattleLocation

Historic Weather in Seattle — Graph

°F

Seattle temperature yesterday

Maximum temperature yesterday: 58 °F (at 6:53 AM)
Minimum temperature yesterday: 40 °F (at 4:53 PM)
Average temperature yesterday: 48 °F

Past Weeks' High & Low Weather Summary

 TemperatureHumidityPressure
High62 °F (Nov 27, 12:53 AM)90% (Nov 25, 4:53 AM)30.54 "Hg (Nov 25, 4:53 AM)
Low27 °F (Nov 15, 6:53 AM)21% (Nov 15, 12:53 PM)29.31 "Hg (Nov 21, 5:53 PM)
Average47 °F70%30.05 "Hg
* Reported Nov 13 11:53 PM — Nov 28 11:53 PM, Seattle, Weather by CustomWeather, © 2014

Note: Actual official high and low records may vary slightly from our data, if they occured in-between our weather recording intervals... More about our weather records

Advertising

Seattle weather history for previous 24 hours

 ConditionsComfort  
Time TempWeatherWind HumidityBarometerVisibility
11:53 PM
Nov 28
43 °FMostly cloudy.6 mph74%29.53 "Hg10 mi
10:53 PM42 °FMostly cloudy.5 mph82%29.52 "Hg10 mi
9:53 PM41 °FOvercast.7 mph82%29.53 "Hg10 mi
8:53 PM41 °FLight rain. Overcast.6 mph86%29.53 "Hg7 mi
7:53 PM41 °FLight rain. Mostly cloudy.8 mph82%29.52 "Hg6 mi
6:53 PM41 °FLight rain. Mostly cloudy.3 mph82%29.51 "Hg10 mi
5:53 PM41 °FLight rain. Mostly cloudy.No wind80%29.50 "Hg10 mi
4:53 PM40 °FLight rain. Mostly cloudy.5 mph83%29.49 "Hg5 mi
3:53 PM41 °FLight rain. Mostly cloudy.3 mph82%29.50 "Hg2 mi
2:53 PM42 °FLight rain. More clouds than sun.6 mph79%29.49 "Hg5 mi
1:53 PM43 °FLight rain. Mostly cloudy.7 mph82%29.49 "Hg5 mi
1:00 PM45 °FLight rain. Mostly cloudy.5 mph81%29.50 "Hg5 mi
11:53 AM46 °FLight rain. Mostly cloudy.6 mph83%29.50 "Hg3 mi
10:53 AM47 °FRain. Mostly cloudy.7 mph83%29.52 "Hg3 mi
9:57 AM48 °FRain. Fog.6 mph87%29.53 "Hg3 mi
8:53 AM56 °FRain. More clouds than sun.8 mph84%29.50 "Hg3 mi
7:53 AM57 °FLight rain. Overcast.9 mph74%29.51 "Hg8 mi
6:53 AM58 °FMostly cloudy.10 mph72%29.52 "Hg10 mi
5:53 AM57 °FMostly cloudy.14 mph74%29.55 "Hg10 mi
4:53 AM57 °FLight rain. Mostly cloudy.14 mph78%29.58 "Hg10 mi
3:53 AM57 °FLight rain. Overcast.15 mph74%29.60 "Hg10 mi
2:53 AM57 °FMostly cloudy.14 mph74%29.64 "Hg10 mi
1:53 AM57 °FLight rain. Mostly cloudy.10 mph74%29.65 "Hg10 mi
Weather by CustomWeather, © 2014

See weather overviewHow to use our weather pages